EW1015 Weather Reports


time (UTC)temp
C
wind
direction
speed
KPH
gust
KPH
rain 1hr
cm
rain 24hr
cm
rain mn
cm
humidity
%
barometer
mb
20260507050021 6 306 8.0 14.5 0.00 1.60 0.00 1 1014.7
20260507044516 6 281 6.4 14.5 0.00 1.83 0.00 1 1014.8
20260507043012 6 323 6.4 14.5 0.00 1.83 0.00 1 1014.5
20260507041507 6 328 6.4 14.5 0.00 1.83 0.00 1 1014.5
20260507040007 6 304 6.4 17.7 0.00 1.83 0.00 1 1014.4
20260507034619 6 270 8.0 14.5 0.00 1.96 1.83 1 1014.2
20260507033105 6 283 8.0 12.9 0.00 1.96 1.83 1 1014.1
20260507031548 6 290 4.8 12.9 0.00 1.96 1.83 1 1013.9
20260507030044 6 279 6.4 12.9 0.00 1.96 1.83 1 1013.9
20260507024551 6 292 6.4 16.1 0.00 2.21 1.83 1 1013.9
20260507023035 7 303 8.0 14.5 0.00 2.21 1.83 1 1013.9
20260507021531 7 263 8.0 16.1 0.00 2.21 1.83 1 1013.9
20260507020026 7 306 8.0 16.1 0.00 2.21 1.83 1 1014.1
20260507014525 7 330 8.0 19.3 0.00 2.46 1.83 1 1013.7
20260507013017 7 321 12.9 20.9 0.03 2.46 1.83 1 1013.7
20260507011513 8 317 12.9 19.3 0.03 2.46 1.83 1 1013.7
20260507010024 8 290 14.5 20.9 0.03 2.46 1.83 1 1013.5
20260507004503 8 279 11.3 17.7 0.03 2.64 1.83 1 1013.1
20260507003100 8 273 6.4 14.5 0.00 2.62 1.80 1 1012.9
20260507001610 8 188 0.0 3.2 0.00 2.62 1.80 1 1012.4
20260507000050 8 135 0.0 3.2 0.00 2.62 1.80 1 1012.4
20260506234555 8 135 0.0 1.6 0.00 2.67 1.80 1 1012.4
20260506233043 8 135 0.0 3.2 0.00 2.67 1.80 1 1012.1
20260506231540 9 135 0.0 1.6 0.00 2.67 1.80 1 1012.2
20260506224612 8 44 0.0 3.2 0.00 2.67 1.80 1 1011.9
20260506223058 8 83 0.0 3.2 0.00 2.67 1.80 1 1011.8
20260506221548 8 159 1.6 6.4 0.00 2.67 1.80 1 1011.5
20260506220056 8 96 1.6 4.8 0.00 2.67 1.80 1 1011.8
20260506214540 8 329 1.6 4.8 0.00 2.67 1.80 1 1011.8
20260506213035 8 355 1.6 4.8 0.00 2.67 1.80 1 1011.8
20260506211531 8 355 1.6 4.8 0.00 2.67 1.80 1 1011.6
20260506210026 8 320 1.6 8.0 0.00 2.67 1.80 1 1011.5
20260506204523 8 311 1.6 6.4 0.00 2.67 1.80 1 1011.4
20260506203018 8 298 4.8 8.0 0.00 2.67 1.80 1 1011.7
20260506201515 7 350 4.8 12.9 0.00 2.67 1.80 1 1011.7
20260506200009 7 333 6.4 12.9 0.00 2.67 1.80 1 1011.7
20260506194507 7 5 4.8 14.5 0.00 2.67 1.80 1 1011.3
20260506193005 7 58 4.8 9.7 0.00 2.67 1.80 1 1011.2
20260506191501 7 344 3.2 9.7 0.00 2.67 1.80 1 1011.4
20260506190056 7 355 3.2 14.5 0.00 2.67 1.80 1 1011.4
20260506184552 7 348 8.0 14.5 0.00 2.67 1.80 1 1011.2
20260506183049 7 323 8.0 14.5 0.00 2.67 1.80 1 1011.0
20260506181558 7 355 6.4 12.9 0.00 2.67 1.80 1 1011.0
20260506180040 7 355 4.8 14.5 0.00 2.67 1.80 1 1011.1
20260506174536 7 360 8.0 12.9 0.00 2.67 1.80 1 1010.8
20260506173046 7 355 4.8 14.5 0.00 2.67 1.80 1 1010.6
20260506171535 7 351 4.8 14.5 0.00 2.67 1.80 1 1010.4
20260506170035 7 344 4.8 12.9 0.00 2.67 1.80 1 1010.2
20260506164534 7 17 8.0 12.9 0.00 2.67 1.80 1 1010.2
20260506163035 7 351 4.8 12.9 0.00 2.67 1.80 1 1010.0
20260506161533 7 14 4.8 9.7 0.03 2.67 1.80 1 1010.0
20260506160038 7 360 3.2 9.7 0.03 2.67 1.80 1 1010.1
20260506154532 7 335 3.2 8.0 0.05 2.67 1.80 1 1010.2
20260506153031 7 331 1.6 8.0 0.05 2.67 1.80 1 1010.2
20260506151531 7 344 1.6 8.0 0.03 2.64 1.78 1 1010.3
20260506150030 7 5 1.6 6.4 0.03 2.64 1.78 1 1010.2
20260506144530 6 57 4.8 8.0 0.00 2.62 1.75 1 1009.9
20260506143033 6 5 3.2 6.4 0.00 2.62 1.75 1 1009.7
20260506141524 6 65 4.8 11.3 0.00 2.62 1.75 1 1009.7
20260506140019 6 67 4.8 9.7 0.03 2.62 1.75 1 1009.7
20260506134520 6 42 6.4 14.5 0.03 2.62 1.75 1 1009.7
20260506133011 6 76 4.8 9.7 0.05 2.62 1.75 1 1009.6
20260506131516 6 45 4.8 14.5 0.10 2.62 1.75 1 1009.7
20260506130003 6 50 3.2 9.7 0.10 2.59 1.73 1 1009.6
20260506124600 6 49 3.2 6.4 0.13 2.59 1.73 1 1009.8
20260506123053 6 65 3.2 4.8 0.15 2.57 1.70 1 1009.8
20260506121548 6 34 3.2 8.0 0.10 2.51 1.65 1 1009.8
20260506120043 6 50 4.8 14.5 0.10 2.49 1.63 1 1009.8
20260506114539 6 48 3.2 12.9 0.10 2.46 1.60 1 1009.5
20260506113035 6 86 6.4 14.5 0.10 2.41 1.55 1 1009.3
20260506111530 6 73 8.0 17.7 0.20 2.41 1.55 1 1009.4
20260506110026 6 73 11.3 19.3 0.20 2.39 1.52 1 1009.5
20260506104521 6 68 8.0 16.1 0.25 2.39 1.50 1 1009.4
20260506103029 6 14 3.2 11.3 0.23 2.34 1.42 1 1009.6
20260506101512 6 59 6.4 16.1 0.15 2.24 1.35 1 1009.5
20260506100011 6 72 9.7 17.7 0.18 2.21 1.32 1 1009.5
20260506094503 7 26 3.2 11.3 0.10 2.13 1.24 1 1009.6
20260506093059 7 69 8.0 17.7 0.13 2.11 1.22 1 1009.0
20260506091555 7 63 6.4 16.1 0.15 2.08 1.19 1 1009.2
20260506090050 7 51 8.0 19.3 0.15 2.03 1.14 1 1009.1
20260506084546 7 72 6.4 17.7 0.18 2.03 1.14 1 1009.0
20260506083041 7 46 6.4 17.7 0.20 1.98 1.09 1 1009.4
20260506081537 7 44 6.4 9.7 0.23 1.93 1.04 1 1009.8
20260506073024 8 25 1.6 9.7 0.25 1.78 0.89 1 1009.6
20260506071523 8 73 4.8 14.5 0.23 1.68 0.79 1 1009.2
20260506061502 8 111 3.2 6.4 0.23 1.42 0.53 1 1009.3
20260506060121 8 110 3.2 9.7 0.25 1.37 0.48 1 1009.4